Regional Weather Roundup
Issued by NWS Upton, NY

Current Version | Previous Version | Graphics & Text | Print | Product List | Glossary Off
Versions: 1 2 3 4 5 6 7 8 9 10 11 12 13 14 15 16 17 18 19 20 21 22 23 24 25 26 27

000
ASUS41 KOKX 170508
RWROKX

REGIONAL WEATHER ROUNDUP
NATIONAL WEATHER SERVICE NEW YORK NY
1200 AM EST TUE JAN 17 2017

NOTE: "FAIR" INDICATES FEW OR NO CLOUDS BELOW 12,000 FEET WITH NO
SIGNIFICANT WEATHER AND/OR OBSTRUCTIONS TO VISIBILITY.

NYZ071-072-176-178-NJZ106-104-170600-
NEW YORK CITY METRO AREA

CITY           SKY/WX    TMP DP  RH WIND       PRES   REMARKS
Central Park   CLOUDY    40  25  55 VRB5      30.30F
Wall St Helipt CLOUDY    40  28  62 W10       30.31F WCI  33
Bronx Bot Gard NOT AVBL
LaGuardia APRT CLOUDY    42  25  50 SW10      30.28F
Kennedy INTL   CLOUDY    41  26  55 SW10      30.31F
Breezy Point     N/A     39 N/A N/A SW8         N/A  WCI  34
Newark/Liberty CLOUDY    40  25  55 SW8       30.30F WCI  34
Teterboro      CLOUDY    40  27  59 SW9       30.28F WCI  34
$$

NYZ177-179-078>081-170600-
LONG ISLAND NEW YORK

CITY           SKY/WX    TMP DP  RH WIND       PRES   REMARKS
Jones Beach      N/A     39 N/A N/A W8          N/A  WCI  34
Matinecock PT  NOT AVBL
Farmingdale    CLOUDY    40  28  62 SW8       30.29F WCI  34
MacArthur/ISP  CLOUDY    39  28  64 SW8       30.27F WCI  33
Shirley        CLOUDY    38  28  67 SW7       30.29F WCI  33
Westhampton    CLOUDY    38  29  70 SW7       30.29F WCI  33
Southampton    NOT AVBL
Bridgehampton  NOT AVBL
East Hampton   CLOUDY    37  28  67 W3        30.27F
Montauk          N/A     39  30  70 SW8       30.27F WCI  33
$$

NYZ052-065-067-170600-
HUDSON VALLEY

CITY           SKY/WX    TMP DP  RH WIND       PRES   REMARKS
White Plains   CLOUDY    38  23  55 W3        30.25F
Newburgh       MOCLDY    36  27  69 W6        30.27F WCI  31
Montgomery     CLOUDY    36  25  64 SW6       30.24F WCI  31
Poughkeepsie   CLOUDY    37  25  61 S3        30.26F
Albany         PTCLDY    25  18  74 CALM      30.25F
$$

NJZ001-105-106-008-010-013-015-019>022-104-170600-
NEW JERSEY

CITY           SKY/WX    TMP DP  RH WIND       PRES   REMARKS
Newark/Liberty CLOUDY    40  25  55 SW8       30.30F WCI  34
Teterboro      CLOUDY    40  27  59 SW9       30.28F WCI  34
Caldwell       CLOUDY    38  24  57 SW6       30.29F WCI  33
Somerville     CLOUDY    38  25  59 VRB3      30.29F
Linden         CLOUDY    40  24  53 W5        30.31F
Sussex         CLOUDY    36  26  67 SW6       30.26F WCI  31
Andover          N/A     35  25  66 SW5       30.27F WCI  31
Trenton        CLOUDY    38  25  59 W5        30.31F WCI  34
Millville      CLOUDY    38  30  73 CALM      30.32F
Atlantic City  CLOUDY    39  23  52 CALM      30.32F
Wrightstown    CLOUDY    38  26  61 W3        30.29F
Toms River     CLOUDY    37  26  64 CALM      30.33S
Belmar         CLOUDY    38  24  57 SW6       30.32F WCI  33
$$

PAZ047>061-062-071-170600-
EASTERN PENNSYLVANIA

CITY           SKY/WX    TMP DP  RH WIND       PRES   REMARKS
Philadelphia   CLOUDY    39  28  64 S3        30.33F
Allentown      CLOUDY    37  25  61 W5        30.30F WCI  33
Scranton       CLOUDY    34  28  79 W3        30.25F
$$

CTZ002-004>006-009-010-012-RIZ004-006-007-MAZ004-011-015-170600-
SOUTHERN NEW ENGLAND
 IN CT

CITY           SKY/WX    TMP DP  RH WIND       PRES   REMARKS
Bradley INTL   CLOUDY    32  24  72 S5        30.25F WCI  27
Hartford       PTCLDY    33  26  75 S5        30.26F WCI  29
Danbury        CLOUDY    36  24  62 W5        30.26F WCI  32
Wtrbury/Oxford CLOUDY    34  21  60 W6        30.24F WCI  29
Bridgeport     CLOUDY    39  33  79 W5        30.28F
Meriden        CLOUDY    33  27  78 CALM      30.26F
New Haven      CLOUDY    37  31  78 SW6       30.27F WCI  32
Chester          N/A     36  28  75 W8        30.24F WCI  29
Groton         MOCLDY    39  30  70 W9        30.25F WCI  33
Wilimantic     CLOUDY    31  26  82 CALM      30.26F

 IN RI

CITY           SKY/WX    TMP DP  RH WIND       PRES   REMARKS
Providence     CLOUDY    34  24  67 S3        30.25F
Block Island   NOT AVBL
Westerly       CLOUDY    40  30  67 W9        30.26F WCI  34
 IN MA

CITY           SKY/WX    TMP DP  RH WIND       PRES   REMARKS
Boston         NOT AVBL
Worcester      CLOUDY    32  17  54 W17       30.17F WCI  21
Westfield      CLOUDY    31  22  69 CALM      30.23F
Provincetown   CLOUDY    37  27  67 W17       30.21F WCI  27
Nantucket      CLOUDY    39  31  72 W14       30.24F WCI  31
$$

ANZ330-335-338-340-345-350-353-355-170600-
COASTAL MARINE OBSERVATIONS


STATION/POSITION TIME  SKY/WX   TEMP    WIND        PRES    VSBY  WAVE
                                AIR SEA DIR/SP/G                  HT/PER
                 (UTC)          (F)     (DEG/KT/KT) (MB)    (MI)  (FT/S)
NY HARB ENTRANCE 0350            41 44  240/ 12/ 12 1026.5          2/ 9
20 S FIRE ISLAND 0350            43 45  250/ 10/ 14 1026.5          3/ 4
GREAT SOUTH BAY  NOT AVBL
23 SSW MONTAUK P 0350            43 48  250/ 16/ 17 1026.2          3/ 4
15 E BARNEGAT LI 0430               45                N/A           2/10
HUDSON CANYON    0350            46 53              1027.0          2/11
KINGS POINT      0448            41 38              1025.3
EXECUTION ROCKS  0445            40     220/  8/ 10   N/A
CENTRAL LI SOUND 0415            40     240/ 14/ 16   N/A           2/ 4
EASTERN LI SOUND NOT AVBL
ROBBINS REEF     0448            40     230/  8/ 10 1026.2
$$


>>>>>>>>>>>>>>>>>>>>>>>>>>>> KEY <<<<<<<<<<<<<<<<<<<<<<<<<<<
>                                                          <
>     SKY/WX - Sky Condition/Present Weather               <
>     TMP    - Temperature in Fahrenheit                   <
>     DP     - Dew Point in Fahrenheit                     <
>     RH     - Relative Humidity in Percent                <
>     WIND   - Direction (from) and Speed in MPH           <
>     PRES   - Mean Sea Level Pressure (inches of Hg)      <
>     WCI    - Wind Chill Index                            <
>     VSB    - VISIBILITY IN MILES                         <
>     HX     - HEAT INDEX                                  <
>     TC     - TEMPERATURE IN CELSIUS                      <
>     VRB    - VARIABLE WIND DIRECTION                     <
>                                                          <
>>>>>>>>>>>>>>>>>>>>>>>>>>>> KEY <<<<<<<<<<<<<<<<<<<<<<<<<<<




USA.gov is the U.S. government's official web portal to all federal, state and local government web resources and services.